User: anonymous   Login
Location: Petruro
(41.0333°N, 14.7833°E)
Time: 07:17:04
(UTC+00:00)
Language:

ERBS - Orbit

View from above orbital plane
View from above orbital plane
View from above satellite
View from above satellite

Ground track
Ground track

The orbit data is extracted from the following two-line orbital elements,

1 15354U 84108B   21265.36466208  .00007936  00000-0  12739-3 0  9990
2 15354  57.0039 223.1699 0006264 175.6770 184.4345 15.54062065 39260
Epoch (UTC): 22 September 2021 08:45:06
Eccentricity: 0.0006264
inclination: 57.0039°
perigee height: 400 km
apogee height: 409 km
right ascension of ascending node: 223.1699°
argument of perigee: 175.6770°
revolutions per day: 15.54062065
mean anomaly at epoch: 184.4345°
orbit number at epoch: 3926

The dashed part of the orbit path shows where the satellite is in the earth's shadow,  

DLR